Zurück zum Katalog

CZ-6A DEB

AktivSSO
NORAD 55214·DEBRIS·🇨🇳 China

Gestartet Nov 11, 2022 von Taiyuan Satellite Launch Center

Loading…

Nächste Überflüge (nächste 24 Stunden)

TLE

AktuellSource: Space-Track

Epoche: Sep 14, 2026, 02:25 UTC

1 55214U 22151WF  26257.10115092  .00004728  00000-0  68670-3 0  9990
2 55214  98.4259 309.0839 0096778 296.7267  62.4059 14.73324230198636

Verfolge CZ-6A DEB in Echtzeit mit AllMySat

Download on the App Store